Location: Mohawk View
(42.7837°N, 73.7885°W)
Time: 08:04:17
(UTC+00:00)

Meteor 1-24 Rocket - Pass Details

Date: 31 October 2021
Orbit: 790 x 927 km, 81.3° (Epoch: 27 November)

Event Time Altitude Azimuth Distance (km) Brightness Sun altitude
Rises 22:08:25 0° 330° (NNW) 3,539 7.1 -4.3°
Reaches altitude 10° 22:12:22 10° 304° (WNW) 2,613 6.9 -5.0°
Maximum altitude 22:14:54 13° 278° (W) 2,410 7.3 -5.5°
Drops below altitude 10° 22:17:26 10° 253° (WSW) 2,622 8.2 -5.9°
Sets 22:21:25 0° 227° (SW) 3,564 8.2 -6.6°
